Year,Month,Day,Hour,Minute,Value (Times are PST for temperature in C)
2017,08,22,00,00,15.70
2017,08,22,00,01,15.70
2017,08,22,00,02,15.70
2017,08,22,00,03,15.60
2017,08,22,00,04,15.60
2017,08,22,00,05,15.60
2017,08,22,00,06,15.60
2017,08,22,00,07,15.60
2017,08,22,00,08,15.60
2017,08,22,00,09,15.60
2017,08,22,00,10,15.70
2017,08,22,00,11,15.70
2017,08,22,00,12,15.70
2017,08,22,00,13,15.60
2017,08,22,00,14,15.60
2017,08,22,00,15,15.60
2017,08,22,00,16,15.60
2017,08,22,00,17,15.60
2017,08,22,00,18,15.60
2017,08,22,00,19,15.60
2017,08,22,00,20,15.60
2017,08,22,00,21,15.60
2017,08,22,00,22,15.60
2017,08,22,00,23,15.50
2017,08,22,00,24,15.50
2017,08,22,00,25,15.50
2017,08,22,00,26,15.50
2017,08,22,00,27,15.50
2017,08,22,00,28,15.40
2017,08,22,00,29,15.40
2017,08,22,00,30,15.40
2017,08,22,00,31,15.40
2017,08,22,00,32,15.40
2017,08,22,00,33,15.40
2017,08,22,00,34,15.40
2017,08,22,00,35,15.40
2017,08,22,00,36,15.40
2017,08,22,00,37,15.40
2017,08,22,00,38,15.40
2017,08,22,00,39,15.40
2017,08,22,00,40,15.40
2017,08,22,00,41,15.40
2017,08,22,00,42,15.40
2017,08,22,00,43,15.40
2017,08,22,00,44,15.40
2017,08,22,00,45,15.30
2017,08,22,00,46,15.30
2017,08,22,00,47,15.30
2017,08,22,00,48,15.30
2017,08,22,00,49,15.30
2017,08,22,00,50,15.30
2017,08,22,00,51,15.30
2017,08,22,00,52,15.30
2017,08,22,00,53,15.30
2017,08,22,00,54,15.30
2017,08,22,00,55,15.30
2017,08,22,00,56,15.30
2017,08,22,00,57,15.30
2017,08,22,00,58,15.30
2017,08,22,00,59,15.30
2017,08,22,01,00,15.20
2017,08,22,01,01,15.20
2017,08,22,01,02,15.20
2017,08,22,01,03,15.20
2017,08,22,01,04,15.20
2017,08,22,01,05,15.20
2017,08,22,01,06,15.20
2017,08,22,01,07,15.20
2017,08,22,01,08,15.20
2017,08,22,01,09,15.20
2017,08,22,01,10,15.20
2017,08,22,01,11,15.20
2017,08,22,01,12,15.10
2017,08,22,01,13,15.10
2017,08,22,01,14,15.10
2017,08,22,01,15,15.10
2017,08,22,01,16,15.10
2017,08,22,01,17,15.10
2017,08,22,01,18,15.10
2017,08,22,01,19,15.10
2017,08,22,01,20,15.10
2017,08,22,01,21,15.00
2017,08,22,01,22,15.00
2017,08,22,01,23,15.00
2017,08,22,01,24,15.00
2017,08,22,01,25,15.00
2017,08,22,01,26,14.90
2017,08,22,01,27,14.90
2017,08,22,01,28,14.90
2017,08,22,01,29,14.90
2017,08,22,01,30,14.90
2017,08,22,01,31,14.90
2017,08,22,01,32,14.90
2017,08,22,01,33,14.80
2017,08,22,01,34,14.80
2017,08,22,01,35,14.80
2017,08,22,01,36,14.80
2017,08,22,01,37,14.80
2017,08,22,01,38,14.80
2017,08,22,01,39,14.80
2017,08,22,01,40,14.80
2017,08,22,01,41,14.80
2017,08,22,01,42,14.80
2017,08,22,01,43,14.80
2017,08,22,01,44,14.80
2017,08,22,01,45,14.80
2017,08,22,01,46,14.80
2017,08,22,01,47,14.90
2017,08,22,01,48,14.90
2017,08,22,01,49,14.90
2017,08,22,01,50,14.90
2017,08,22,01,51,14.80
2017,08,22,01,52,14.80
2017,08,22,01,53,14.80
2017,08,22,01,54,14.80
2017,08,22,01,55,14.80
2017,08,22,01,56,14.80
2017,08,22,01,57,14.80
2017,08,22,01,58,14.80
2017,08,22,01,59,14.70
2017,08,22,02,00,14.70
2017,08,22,02,01,14.80
2017,08,22,02,02,14.70
2017,08,22,02,03,14.70
2017,08,22,02,04,14.80
2017,08,22,02,05,14.70
2017,08,22,02,06,14.70
2017,08,22,02,07,14.70
2017,08,22,02,08,14.70
2017,08,22,02,09,14.70
2017,08,22,02,10,14.70
2017,08,22,02,11,14.70
2017,08,22,02,12,14.70
2017,08,22,02,13,14.70
2017,08,22,02,14,14.70
2017,08,22,02,15,14.70
2017,08,22,02,16,14.70
2017,08,22,02,17,14.70
2017,08,22,02,18,14.70
2017,08,22,02,19,14.70
2017,08,22,02,20,14.70
2017,08,22,02,21,14.70
2017,08,22,02,22,14.60
2017,08,22,02,23,14.60
2017,08,22,02,24,14.60
2017,08,22,02,25,14.60
2017,08,22,02,26,14.60
2017,08,22,02,27,14.60
2017,08,22,02,28,14.60
2017,08,22,02,29,14.60
2017,08,22,02,30,14.60
2017,08,22,02,31,14.60
2017,08,22,02,32,14.60
2017,08,22,02,33,14.60
2017,08,22,02,34,14.60
2017,08,22,02,35,14.50
2017,08,22,02,36,14.50
2017,08,22,02,37,14.50
2017,08,22,02,38,14.50
2017,08,22,02,39,14.40
2017,08,22,02,40,14.40
2017,08,22,02,41,14.40
2017,08,22,02,42,14.40
2017,08,22,02,43,14.40
2017,08,22,02,44,14.40
2017,08,22,02,45,14.40
2017,08,22,02,46,14.40
2017,08,22,02,47,14.40
2017,08,22,02,48,14.40
2017,08,22,02,49,14.40
2017,08,22,02,50,14.30
2017,08,22,02,51,14.30
2017,08,22,02,52,14.30
2017,08,22,02,53,14.30
2017,08,22,02,54,14.30
2017,08,22,02,55,14.30
2017,08,22,02,56,14.30
2017,08,22,02,57,14.30
2017,08,22,02,58,14.30
2017,08,22,02,59,14.30
2017,08,22,03,00,14.30
2017,08,22,03,01,14.30
2017,08,22,03,02,14.30
2017,08,22,03,03,14.30
2017,08,22,03,04,14.30
2017,08,22,03,05,14.30
2017,08,22,03,06,14.20
2017,08,22,03,07,14.20
2017,08,22,03,08,14.20
2017,08,22,03,09,14.20
2017,08,22,03,10,14.20
2017,08,22,03,11,14.20
2017,08,22,03,12,14.20
2017,08,22,03,13,14.20
2017,08,22,03,14,14.20
2017,08,22,03,15,14.20
2017,08,22,03,16,14.20
2017,08,22,03,17,14.20
2017,08,22,03,18,14.20
2017,08,22,03,19,14.20
2017,08,22,03,20,14.20
2017,08,22,03,21,14.20
2017,08,22,03,22,14.20
2017,08,22,03,23,14.20
2017,08,22,03,24,14.20
2017,08,22,03,25,14.20
2017,08,22,03,26,14.20
2017,08,22,03,27,14.20
2017,08,22,03,28,14.20
2017,08,22,03,29,14.20
2017,08,22,03,30,14.30
2017,08,22,03,31,14.30
2017,08,22,03,32,14.30
2017,08,22,03,33,14.30
2017,08,22,03,34,14.30
2017,08,22,03,35,14.40
2017,08,22,03,36,14.40
2017,08,22,03,37,14.40
2017,08,22,03,38,14.40
2017,08,22,03,39,14.40
2017,08,22,03,40,14.40
2017,08,22,03,41,14.40
2017,08,22,03,42,14.40
2017,08,22,03,43,14.40
2017,08,22,03,44,14.40
2017,08,22,03,45,14.40
2017,08,22,03,46,14.40
2017,08,22,03,47,14.40
2017,08,22,03,48,14.30
2017,08,22,03,49,14.30
2017,08,22,03,50,14.30
2017,08,22,03,51,14.40
2017,08,22,03,52,14.30
2017,08,22,03,53,14.30
2017,08,22,03,54,14.30
2017,08,22,03,55,14.30
2017,08,22,03,56,14.30
2017,08,22,03,57,14.30
2017,08,22,03,58,14.30
2017,08,22,03,59,14.30
2017,08,22,04,00,14.30
2017,08,22,04,01,14.30
2017,08,22,04,02,14.30
2017,08,22,04,03,14.30
2017,08,22,04,04,14.30
2017,08,22,04,05,14.30
2017,08,22,04,06,14.30
2017,08,22,04,07,14.20
2017,08,22,04,08,14.20
2017,08,22,04,09,14.20
2017,08,22,04,10,14.20
2017,08,22,04,11,14.20
2017,08,22,04,12,14.20
2017,08,22,04,13,14.20
2017,08,22,04,14,14.20
2017,08,22,04,15,14.20
2017,08,22,04,16,14.20
2017,08,22,04,17,14.20
2017,08,22,04,18,14.20
2017,08,22,04,19,14.20
2017,08,22,04,20,14.20
2017,08,22,04,21,14.20
2017,08,22,04,22,14.20
2017,08,22,04,23,14.20
2017,08,22,04,24,14.20
2017,08,22,04,25,14.20
2017,08,22,04,26,14.20
2017,08,22,04,27,14.20
2017,08,22,04,28,14.20
2017,08,22,04,29,14.20
2017,08,22,04,30,14.20
2017,08,22,04,31,14.20
2017,08,22,04,32,14.20
2017,08,22,04,33,14.20
2017,08,22,04,34,14.20
2017,08,22,04,35,14.20
2017,08,22,04,36,14.20
2017,08,22,04,37,14.20
2017,08,22,04,38,14.20
2017,08,22,04,39,14.20
2017,08,22,04,40,14.10
2017,08,22,04,41,14.10
2017,08,22,04,42,14.10
2017,08,22,04,43,14.10
2017,08,22,04,44,14.10
2017,08,22,04,45,14.00
2017,08,22,04,46,14.00
2017,08,22,04,47,14.00
2017,08,22,04,48,13.90
2017,08,22,04,49,13.90
2017,08,22,04,50,13.90
2017,08,22,04,51,13.90
2017,08,22,04,52,13.90
2017,08,22,04,53,13.90
2017,08,22,04,54,13.90
2017,08,22,04,55,13.90
2017,08,22,04,56,13.90
2017,08,22,04,57,13.90
2017,08,22,04,58,13.90
2017,08,22,04,59,13.90
2017,08,22,05,00,13.90
2017,08,22,05,01,13.90
2017,08,22,05,02,13.90
2017,08,22,05,03,13.90
2017,08,22,05,04,13.90
2017,08,22,05,05,13.90
2017,08,22,05,06,13.90
2017,08,22,05,07,13.90
2017,08,22,05,08,14.00
2017,08,22,05,09,14.00
2017,08,22,05,10,14.00
2017,08,22,05,11,14.00
2017,08,22,05,12,13.90
2017,08,22,05,13,13.90
2017,08,22,05,14,13.90
2017,08,22,05,15,13.90
2017,08,22,05,16,13.90
2017,08,22,05,17,13.90
2017,08,22,05,18,13.90
2017,08,22,05,19,13.90
2017,08,22,05,20,13.90
2017,08,22,05,21,13.90
2017,08,22,05,22,13.90
2017,08,22,05,23,13.80
2017,08,22,05,24,13.80
2017,08,22,05,25,13.80
2017,08,22,05,26,13.80
2017,08,22,05,27,13.80
2017,08,22,05,28,13.80
2017,08,22,05,29,13.80
2017,08,22,05,30,13.80
2017,08,22,05,31,13.80
2017,08,22,05,32,13.80
2017,08,22,05,33,13.70
2017,08,22,05,34,13.70
2017,08,22,05,35,13.70
2017,08,22,05,36,13.70
2017,08,22,05,37,13.70
2017,08,22,05,38,13.60
2017,08,22,05,39,13.60
2017,08,22,05,40,13.60
2017,08,22,05,41,13.60
2017,08,22,05,42,13.70
2017,08,22,05,43,13.70
2017,08,22,05,44,13.70
2017,08,22,05,45,13.60
2017,08,22,05,46,13.60
2017,08,22,05,47,13.60
2017,08,22,05,48,13.60
2017,08,22,05,49,13.60
2017,08,22,05,50,13.60
2017,08,22,05,51,13.60
2017,08,22,05,52,13.50
2017,08,22,05,53,13.50
2017,08,22,05,54,13.50
2017,08,22,05,55,13.50
2017,08,22,05,56,13.40
2017,08,22,05,57,13.40
2017,08,22,05,58,13.40
2017,08,22,05,59,13.40
2017,08,22,06,00,13.40
2017,08,22,06,01,13.40
2017,08,22,06,02,13.40
2017,08,22,06,03,13.40
2017,08,22,06,04,13.40
2017,08,22,06,05,13.40
2017,08,22,06,06,13.40
2017,08,22,06,07,13.50
2017,08,22,06,08,13.50
2017,08,22,06,09,13.50
2017,08,22,06,10,13.50
2017,08,22,06,11,13.50
2017,08,22,06,12,13.50
2017,08,22,06,13,13.60
2017,08,22,06,14,13.60
2017,08,22,06,15,13.60
2017,08,22,06,16,13.60
2017,08,22,06,17,13.60
2017,08,22,06,18,13.60
2017,08,22,06,19,13.70
2017,08,22,06,20,13.70
2017,08,22,06,21,13.70
2017,08,22,06,22,13.70
2017,08,22,06,23,13.70
2017,08,22,06,24,13.70
2017,08,22,06,25,13.60
2017,08,22,06,26,13.70
2017,08,22,06,27,13.60
2017,08,22,06,28,13.70
2017,08,22,06,29,13.60
2017,08,22,06,30,13.70
2017,08,22,06,31,13.60
2017,08,22,06,32,13.60
2017,08,22,06,33,13.60
2017,08,22,06,34,13.70
2017,08,22,06,35,13.70
2017,08,22,06,36,13.70
2017,08,22,06,37,13.70
2017,08,22,06,38,13.70
2017,08,22,06,39,13.70
2017,08,22,06,40,13.70
2017,08,22,06,41,13.70
2017,08,22,06,42,13.70
2017,08,22,06,43,13.70
2017,08,22,06,44,13.70
2017,08,22,06,45,13.60
2017,08,22,06,46,13.70
2017,08,22,06,47,13.60
2017,08,22,06,48,13.60
2017,08,22,06,49,13.60
2017,08,22,06,50,13.60
2017,08,22,06,51,13.70
2017,08,22,06,52,13.70
2017,08,22,06,53,13.70
2017,08,22,06,54,13.70
2017,08,22,06,55,13.70
2017,08,22,06,56,13.70
2017,08,22,06,57,13.70
2017,08,22,06,58,13.70
2017,08,22,06,59,13.70
2017,08,22,07,00,13.70
2017,08,22,07,01,13.70
2017,08,22,07,02,13.70
2017,08,22,07,03,13.70
2017,08,22,07,04,13.70
2017,08,22,07,05,13.70
2017,08,22,07,06,13.70
2017,08,22,07,07,13.70
2017,08,22,07,08,13.70
2017,08,22,07,09,13.70
2017,08,22,07,10,13.60
2017,08,22,07,11,13.60
2017,08,22,07,12,13.60
2017,08,22,07,13,13.60
2017,08,22,07,14,13.60
2017,08,22,07,15,13.60
2017,08,22,07,16,13.60
2017,08,22,07,17,13.60
2017,08,22,07,18,13.60
2017,08,22,07,19,13.60
2017,08,22,07,20,13.60
2017,08,22,07,21,13.60
2017,08,22,07,22,13.60
2017,08,22,07,23,13.60
2017,08,22,07,24,13.60
2017,08,22,07,25,13.60
2017,08,22,07,26,13.50
2017,08,22,07,27,13.50
2017,08,22,07,28,13.50
2017,08,22,07,29,13.50
2017,08,22,07,30,13.50
2017,08,22,07,31,13.50
2017,08,22,07,32,13.50
2017,08,22,07,33,13.50
2017,08,22,07,34,13.60
2017,08,22,07,35,13.60
2017,08,22,07,36,13.60
2017,08,22,07,37,13.60
2017,08,22,07,38,13.60
2017,08,22,07,39,13.70
2017,08,22,07,40,13.70
2017,08,22,07,41,13.80
2017,08,22,07,42,13.80
2017,08,22,07,43,13.90
2017,08,22,07,44,13.90
2017,08,22,07,45,14.00
2017,08,22,07,46,14.00
2017,08,22,07,47,14.10
2017,08,22,07,48,14.20
2017,08,22,07,49,14.30
2017,08,22,07,50,14.40
2017,08,22,07,51,14.50
2017,08,22,07,52,14.60
2017,08,22,07,53,14.70
2017,08,22,07,54,14.80
2017,08,22,07,55,14.80
2017,08,22,07,56,14.90
2017,08,22,07,57,15.10
2017,08,22,07,58,15.20
2017,08,22,07,59,15.30
2017,08,22,08,00,15.50
2017,08,22,08,01,15.60
2017,08,22,08,02,15.70
2017,08,22,08,03,15.80
2017,08,22,08,04,15.90
2017,08,22,08,05,15.90
2017,08,22,08,06,16.00
2017,08,22,08,07,16.00
2017,08,22,08,08,16.00
2017,08,22,08,09,16.00
2017,08,22,08,10,16.00
2017,08,22,08,11,16.00
2017,08,22,08,12,16.00
2017,08,22,08,13,16.00
2017,08,22,08,14,16.10
2017,08,22,08,15,16.20
2017,08,22,08,16,16.40
2017,08,22,08,17,16.50
2017,08,22,08,18,16.60
2017,08,22,08,19,16.70
2017,08,22,08,20,16.80
2017,08,22,08,21,16.90
2017,08,22,08,22,17.10
2017,08,22,08,23,17.20
2017,08,22,08,24,17.30
2017,08,22,08,25,17.40
2017,08,22,08,26,17.50
2017,08,22,08,27,17.60
2017,08,22,08,28,17.70
2017,08,22,08,29,17.80
2017,08,22,08,30,17.90
2017,08,22,08,31,17.90
2017,08,22,08,32,18.00
2017,08,22,08,33,18.00
2017,08,22,08,34,18.00
2017,08,22,08,35,18.10
2017,08,22,08,36,18.10
2017,08,22,08,37,18.20
2017,08,22,08,38,18.20
2017,08,22,08,39,18.20
2017,08,22,08,40,18.20
2017,08,22,08,41,18.10
2017,08,22,08,42,18.00
2017,08,22,08,43,17.90
2017,08,22,08,44,17.80
2017,08,22,08,45,17.80
2017,08,22,08,46,17.70
2017,08,22,08,47,17.70
2017,08,22,08,48,17.60
2017,08,22,08,49,17.60
2017,08,22,08,50,17.60
2017,08,22,08,51,17.60
2017,08,22,08,52,17.60
2017,08,22,08,53,17.60
2017,08,22,08,54,17.60
2017,08,22,08,55,17.60
2017,08,22,08,56,17.60
2017,08,22,08,57,17.60
2017,08,22,08,58,17.70
2017,08,22,08,59,17.70
2017,08,22,09,00,17.70
2017,08,22,09,01,17.80
2017,08,22,09,02,17.80
2017,08,22,09,03,17.80
2017,08,22,09,04,17.80
2017,08,22,09,05,17.80
2017,08,22,09,06,17.90
2017,08,22,09,07,17.90
2017,08,22,09,08,18.00
2017,08,22,09,09,18.00
2017,08,22,09,10,18.10
2017,08,22,09,11,18.10
2017,08,22,09,12,18.20
2017,08,22,09,13,18.20
2017,08,22,09,14,18.30
2017,08,22,09,15,18.30
2017,08,22,09,16,18.30
2017,08,22,09,17,18.40
2017,08,22,09,18,18.50
2017,08,22,09,19,18.50
2017,08,22,09,20,18.60
2017,08,22,09,21,18.70
2017,08,22,09,22,18.70
2017,08,22,09,23,18.80
2017,08,22,09,24,19.00
2017,08,22,09,25,19.10
2017,08,22,09,26,19.20
2017,08,22,09,27,19.20
2017,08,22,09,28,19.20
2017,08,22,09,29,19.20
2017,08,22,09,30,19.20
2017,08,22,09,31,19.20
2017,08,22,09,32,19.20
2017,08,22,09,33,19.20
2017,08,22,09,34,19.20
2017,08,22,09,35,19.20
2017,08,22,09,36,19.20
2017,08,22,09,37,19.30
2017,08,22,09,38,19.30
2017,08,22,09,39,19.40
2017,08,22,09,40,19.40
2017,08,22,09,41,19.50
2017,08,22,09,42,19.50
2017,08,22,09,43,19.60
2017,08,22,09,44,19.50
2017,08,22,09,45,19.50
2017,08,22,09,46,19.40
2017,08,22,09,47,19.40
2017,08,22,09,48,19.30
2017,08,22,09,49,19.30
2017,08,22,09,50,19.30
2017,08,22,09,51,19.30
2017,08,22,09,52,19.30
2017,08,22,09,53,19.30
2017,08,22,09,54,19.30
2017,08,22,09,55,19.30
2017,08,22,09,56,19.40
2017,08,22,09,57,19.40
2017,08,22,09,58,19.50
2017,08,22,09,59,19.50
2017,08,22,10,00,19.60
2017,08,22,10,01,19.60
2017,08,22,10,02,19.70
2017,08,22,10,03,19.70
2017,08,22,10,04,19.60
2017,08,22,10,05,19.60
2017,08,22,10,06,19.60
2017,08,22,10,07,19.60
2017,08,22,10,08,19.60
2017,08,22,10,09,19.60
2017,08,22,10,10,19.60
2017,08,22,10,11,19.60
2017,08,22,10,12,19.50
2017,08,22,10,13,19.50
2017,08,22,10,14,19.60
2017,08,22,10,15,19.70
2017,08,22,10,16,19.70
2017,08,22,10,17,19.70
2017,08,22,10,18,19.80
2017,08,22,10,19,19.80
2017,08,22,10,20,19.80
2017,08,22,10,21,19.80
2017,08,22,10,22,19.80
2017,08,22,10,23,19.80
2017,08,22,10,24,19.70
2017,08,22,10,25,19.70
2017,08,22,10,26,19.70
2017,08,22,10,27,19.70
2017,08,22,10,28,19.70
2017,08,22,10,29,19.70
2017,08,22,10,30,19.70
2017,08,22,10,31,19.80
2017,08,22,10,32,19.80
2017,08,22,10,33,19.80
2017,08,22,10,34,19.80
2017,08,22,10,35,19.90
2017,08,22,10,36,19.90
2017,08,22,10,37,20.00
2017,08,22,10,38,20.10
2017,08,22,10,39,20.20
2017,08,22,10,40,20.20
2017,08,22,10,41,20.30
2017,08,22,10,42,20.30
2017,08,22,10,43,20.40
2017,08,22,10,44,20.50
2017,08,22,10,45,20.60
2017,08,22,10,46,20.70
2017,08,22,10,47,20.80
2017,08,22,10,48,20.90
2017,08,22,10,49,21.00
2017,08,22,10,50,21.10
2017,08,22,10,51,21.20
2017,08,22,10,52,21.20
2017,08,22,10,53,21.30
2017,08,22,10,54,21.40
2017,08,22,10,55,21.40
2017,08,22,10,56,21.40
2017,08,22,10,57,21.50
2017,08,22,10,58,21.50
2017,08,22,10,59,21.60
2017,08,22,11,00,21.60
2017,08,22,11,01,21.70
2017,08,22,11,02,21.70
2017,08,22,11,03,21.70
2017,08,22,11,04,21.80
2017,08,22,11,05,21.80
2017,08,22,11,06,21.90
2017,08,22,11,07,21.90
2017,08,22,11,08,22.00
2017,08,22,11,09,22.00
2017,08,22,11,10,22.00
2017,08,22,11,11,22.00
2017,08,22,11,12,22.10
2017,08,22,11,13,22.10
2017,08,22,11,14,22.20
2017,08,22,11,15,22.20
2017,08,22,11,16,22.30
2017,08,22,11,17,22.30
2017,08,22,11,18,22.40
2017,08,22,11,19,22.40
2017,08,22,11,20,22.40
2017,08,22,11,21,22.40
2017,08,22,11,22,22.40
2017,08,22,11,23,22.40
2017,08,22,11,24,22.40
2017,08,22,11,25,22.40
2017,08,22,11,26,22.30
2017,08,22,11,27,22.30
2017,08,22,11,28,22.30
2017,08,22,11,29,22.40
2017,08,22,11,30,22.40
2017,08,22,11,31,22.30
2017,08,22,11,32,22.30
2017,08,22,11,33,22.30
2017,08,22,11,34,22.30
2017,08,22,11,35,22.40
2017,08,22,11,36,22.40
2017,08,22,11,37,22.40
2017,08,22,11,38,22.40
2017,08,22,11,39,22.50
2017,08,22,11,40,22.50
2017,08,22,11,41,22.50
2017,08,22,11,42,22.50
2017,08,22,11,43,22.40
2017,08,22,11,44,22.40
2017,08,22,11,45,22.30
2017,08,22,11,46,22.30
2017,08,22,11,47,22.20
2017,08,22,11,48,22.20
2017,08,22,11,49,22.20
2017,08,22,11,50,22.30
2017,08,22,11,51,22.30
2017,08,22,11,52,22.20
2017,08,22,11,53,22.20
2017,08,22,11,54,22.20
2017,08,22,11,55,22.30
2017,08,22,11,56,22.30
2017,08,22,11,57,22.30
2017,08,22,11,58,22.30
2017,08,22,11,59,22.40
2017,08,22,12,00,22.50
2017,08,22,12,01,22.50
2017,08,22,12,02,22.60
2017,08,22,12,03,22.60
2017,08,22,12,04,22.70
2017,08,22,12,05,22.70
2017,08,22,12,06,22.80
2017,08,22,12,07,22.80
2017,08,22,12,08,22.70
2017,08,22,12,09,22.70
2017,08,22,12,10,22.70
2017,08,22,12,11,22.60
2017,08,22,12,12,22.60
2017,08,22,12,13,22.60
2017,08,22,12,14,22.60
2017,08,22,12,15,22.70
2017,08,22,12,16,22.70
2017,08,22,12,17,22.70
2017,08,22,12,18,22.60
2017,08,22,12,19,22.60
2017,08,22,12,20,22.50
2017,08,22,12,21,22.30
2017,08,22,12,22,22.20
2017,08,22,12,23,22.10
2017,08,22,12,24,22.10
2017,08,22,12,25,22.10
2017,08,22,12,26,22.10
2017,08,22,12,27,22.10
2017,08,22,12,28,22.10
2017,08,22,12,29,22.00
2017,08,22,12,30,22.00
2017,08,22,12,31,21.90
2017,08,22,12,32,21.80
2017,08,22,12,33,21.80
2017,08,22,12,34,21.80
2017,08,22,12,35,21.70
2017,08,22,12,36,21.70
2017,08,22,12,37,21.70
2017,08,22,12,38,21.70
2017,08,22,12,39,21.70
2017,08,22,12,40,21.70
2017,08,22,12,41,21.80
2017,08,22,12,42,21.80
2017,08,22,12,43,21.70
2017,08,22,12,44,21.70
2017,08,22,12,45,21.70
2017,08,22,12,46,21.70
2017,08,22,12,47,21.70
2017,08,22,12,48,21.70
2017,08,22,12,49,21.70
2017,08,22,12,50,21.60
2017,08,22,12,51,21.60
2017,08,22,12,52,21.50
2017,08,22,12,53,21.50
2017,08,22,12,54,21.50
2017,08,22,12,55,21.50
2017,08,22,12,56,21.40
2017,08,22,12,57,21.40
2017,08,22,12,58,21.30
2017,08,22,12,59,21.20
2017,08,22,13,00,21.10
2017,08,22,13,01,21.00
2017,08,22,13,02,20.90
2017,08,22,13,03,20.90
2017,08,22,13,04,20.80
2017,08,22,13,05,20.70
2017,08,22,13,06,20.70
2017,08,22,13,07,20.60
2017,08,22,13,08,20.50
2017,08,22,13,09,20.40
2017,08,22,13,10,20.40
2017,08,22,13,11,20.50
2017,08,22,13,12,20.50
2017,08,22,13,13,20.60
2017,08,22,13,14,20.70
2017,08,22,13,15,20.70
2017,08,22,13,16,20.60
2017,08,22,13,17,20.60
2017,08,22,13,18,20.60
2017,08,22,13,19,20.60
2017,08,22,13,20,20.60
2017,08,22,13,21,20.60
2017,08,22,13,22,20.50
2017,08,22,13,23,20.50
2017,08,22,13,24,20.50
2017,08,22,13,25,20.70
2017,08,22,13,26,20.70
2017,08,22,13,27,20.80
2017,08,22,13,28,20.80
2017,08,22,13,29,20.90
2017,08,22,13,30,20.90
2017,08,22,13,31,20.90
2017,08,22,13,32,21.00
2017,08,22,13,33,21.00
2017,08,22,13,34,21.00
2017,08,22,13,35,21.10
2017,08,22,13,36,21.20
2017,08,22,13,37,21.20
2017,08,22,13,38,21.30
2017,08,22,13,39,21.30
2017,08,22,13,40,21.40
2017,08,22,13,41,21.40
2017,08,22,13,42,21.40
2017,08,22,13,43,21.40
2017,08,22,13,44,21.40
2017,08,22,13,45,21.40
2017,08,22,13,46,21.40
2017,08,22,13,47,21.50
2017,08,22,13,48,21.50
2017,08,22,13,49,21.60
2017,08,22,13,50,21.60
2017,08,22,13,51,21.60
2017,08,22,13,52,21.50
2017,08,22,13,53,21.40
2017,08,22,13,54,21.20
2017,08,22,13,55,21.20
2017,08,22,13,56,21.10
2017,08,22,13,57,21.10
2017,08,22,13,58,21.00
2017,08,22,13,59,20.90
2017,08,22,14,00,20.90
2017,08,22,14,01,20.80
2017,08,22,14,02,20.80
2017,08,22,14,03,20.70
2017,08,22,14,04,20.60
2017,08,22,14,05,20.50
2017,08,22,14,06,20.50
2017,08,22,14,07,20.50
2017,08,22,14,08,20.60
2017,08,22,14,09,20.60
2017,08,22,14,10,20.60
2017,08,22,14,11,20.60
2017,08,22,14,12,20.60
2017,08,22,14,13,20.60
2017,08,22,14,14,20.60
2017,08,22,14,15,20.70
2017,08,22,14,16,20.80
2017,08,22,14,17,20.80
2017,08,22,14,18,20.80
2017,08,22,14,19,20.80
2017,08,22,14,20,20.80
2017,08,22,14,21,20.80
2017,08,22,14,22,20.80
2017,08,22,14,23,20.80
2017,08,22,14,24,20.70
2017,08,22,14,25,20.70
2017,08,22,14,26,20.60
2017,08,22,14,27,20.50
2017,08,22,14,28,20.50
2017,08,22,14,29,20.40
2017,08,22,14,30,20.30
2017,08,22,14,31,20.30
2017,08,22,14,32,20.30
2017,08,22,14,33,20.30
2017,08,22,14,34,20.30
2017,08,22,14,35,20.30
2017,08,22,14,36,20.30
2017,08,22,14,37,20.30
2017,08,22,14,38,20.30
2017,08,22,14,39,20.30
2017,08,22,14,40,20.30
2017,08,22,14,41,20.40
2017,08,22,14,42,20.50
2017,08,22,14,43,20.50
2017,08,22,14,44,20.50
2017,08,22,14,45,20.40
2017,08,22,14,46,20.40
2017,08,22,14,47,20.50
2017,08,22,14,48,20.50
2017,08,22,14,49,20.60
2017,08,22,14,50,20.60
2017,08,22,14,51,20.70
2017,08,22,14,52,20.60
2017,08,22,14,53,20.60
2017,08,22,14,54,20.50
2017,08,22,14,55,20.40
2017,08,22,14,56,20.30
2017,08,22,14,57,20.30
2017,08,22,14,58,20.40
2017,08,22,14,59,20.40
2017,08,22,15,00,20.40
2017,08,22,15,01,20.40
2017,08,22,15,02,20.30
2017,08,22,15,03,20.20
2017,08,22,15,04,20.10
2017,08,22,15,05,20.00
2017,08,22,15,06,20.00
2017,08,22,15,07,20.00
2017,08,22,15,08,19.90
2017,08,22,15,09,19.90
2017,08,22,15,10,19.90
2017,08,22,15,11,19.90
2017,08,22,15,12,19.80
2017,08,22,15,13,19.70
2017,08,22,15,14,19.60
2017,08,22,15,15,19.50
2017,08,22,15,16,19.50
2017,08,22,15,17,19.40
2017,08,22,15,18,19.40
2017,08,22,15,19,19.30
2017,08,22,15,20,19.30
2017,08,22,15,21,19.30
2017,08,22,15,22,19.20
2017,08,22,15,23,19.20
2017,08,22,15,24,19.20
2017,08,22,15,25,19.30
2017,08,22,15,26,19.30
2017,08,22,15,27,19.40
2017,08,22,15,28,19.40
2017,08,22,15,29,19.50
2017,08,22,15,30,19.60
2017,08,22,15,31,19.60
2017,08,22,15,32,19.70
2017,08,22,15,33,19.70
2017,08,22,15,34,19.80
2017,08,22,15,35,19.90
2017,08,22,15,36,19.90
2017,08,22,15,37,19.90
2017,08,22,15,38,20.00
2017,08,22,15,39,19.90
2017,08,22,15,40,19.90
2017,08,22,15,41,20.00
2017,08,22,15,42,20.00
2017,08,22,15,43,20.00
2017,08,22,15,44,20.00
2017,08,22,15,45,19.90
2017,08,22,15,46,20.00
2017,08,22,15,47,20.00
2017,08,22,15,48,20.00
2017,08,22,15,49,20.00
2017,08,22,15,50,20.00
2017,08,22,15,51,19.90
2017,08,22,15,52,19.90
2017,08,22,15,53,19.90
2017,08,22,15,54,19.90
2017,08,22,15,55,19.80
2017,08,22,15,56,19.80
2017,08,22,15,57,19.80
2017,08,22,15,58,19.80
2017,08,22,15,59,19.80
2017,08,22,16,00,19.80
2017,08,22,16,01,19.80
2017,08,22,16,02,19.70
2017,08,22,16,03,19.70
2017,08,22,16,04,19.60
2017,08,22,16,05,19.60
2017,08,22,16,06,19.50
2017,08,22,16,07,19.50
2017,08,22,16,08,19.60
2017,08,22,16,09,19.60
2017,08,22,16,10,19.70
2017,08,22,16,11,19.60
2017,08,22,16,12,19.60
2017,08,22,16,13,19.60
2017,08,22,16,14,19.60
2017,08,22,16,15,19.50
2017,08,22,16,16,19.60
2017,08,22,16,17,19.60
2017,08,22,16,18,19.70
2017,08,22,16,19,19.70
2017,08,22,16,20,19.80
2017,08,22,16,21,19.80
2017,08,22,16,22,19.80
2017,08,22,16,23,19.90
2017,08,22,16,24,20.00
2017,08,22,16,25,20.00
2017,08,22,16,26,20.10
2017,08,22,16,27,20.10
2017,08,22,16,28,20.10
2017,08,22,16,29,20.10
2017,08,22,16,30,20.00
2017,08,22,16,31,20.10
2017,08,22,16,32,20.10
2017,08,22,16,33,20.10
2017,08,22,16,34,20.10
2017,08,22,16,35,20.10
2017,08,22,16,36,20.20
2017,08,22,16,37,20.20
2017,08,22,16,38,20.20
2017,08,22,16,39,20.20
2017,08,22,16,40,20.20
2017,08,22,16,41,20.20
2017,08,22,16,42,20.20
2017,08,22,16,43,20.10
2017,08,22,16,44,20.20
2017,08,22,16,45,20.20
2017,08,22,16,46,20.20
2017,08,22,16,47,20.30
2017,08,22,16,48,20.30
2017,08,22,16,49,20.30
2017,08,22,16,50,20.40
2017,08,22,16,51,20.50
2017,08,22,16,52,20.50
2017,08,22,16,53,20.60
2017,08,22,16,54,20.70
2017,08,22,16,55,20.70
2017,08,22,16,56,20.80
2017,08,22,16,57,20.80
2017,08,22,16,58,20.80
2017,08,22,16,59,20.80
2017,08,22,17,00,20.70
2017,08,22,17,01,20.80
2017,08,22,17,02,20.80
2017,08,22,17,03,20.80
2017,08,22,17,04,20.80
2017,08,22,17,05,20.90
2017,08,22,17,06,21.00
2017,08,22,17,07,21.10
2017,08,22,17,08,21.20
2017,08,22,17,09,21.20
2017,08,22,17,10,21.20
2017,08,22,17,11,21.20
2017,08,22,17,12,21.20
2017,08,22,17,13,21.20
2017,08,22,17,14,21.10
2017,08,22,17,15,21.00
2017,08,22,17,16,20.90
2017,08,22,17,17,20.80
2017,08,22,17,18,20.70
2017,08,22,17,19,20.60